Temp
19 19 20 20 19 19 20 20 20 20 20 19 19 19 19 19 19 19 19 19 19 19
20 19 20 20 19 19 19 20 20 20 20 20 19 19 19 19 19 19 19 19 19 20
20 20 20 19 19 19 19 20 20 20 20 20 19 19 19 19 19 19 19 19 19 19
20 20 20 19 19 19 20 20 20 20 20 20 20 19 20 20 19 19 19 19 19 19
20 20 19 19 19 20 20 19 19 20 19 20 20 19 19 20 20 20 19 19 19 19
20 19 20 20 20 19 20 19 19 20 20 20 19 20 20 19 19 19 19 19 18 18
20 19 19 20 20 20 19 19 19 19 20 20 19 19 19 19 19 19 18 18 18 18
20 20 19 19 20 19 19 19 19 19 19 19 19 19 19 19 18 18 18 18 18 18
20 20 20 20 19 19 19 19 19 19 18 18 18 18 18 18 18 18 18 18 18 18
21 20 20 20 19 19 19 19 19 19 19 19 18 18 18 18 18 18 18 18 18 18
20 20 20 20 19 19 19 19 19 19 18 18 18 18 18 18 18 17 17 17 17 17
19 19 19 19 19 19 19 19 19 19 18 18 18 18 18 17 17 17 17 16 16 16
18 18 18 19 19 19 19 19 18 18 17 17 17 17 16 15 16 16 16 15 15 15
15 16 16 18 18 18 17 17 16 17 17 17 16 15 15 15 15 15 15 14 14 14
Height
1573 1575 1576 1577 1578 1578 1578 1580 1581 1581 1583 1584 1584 1583 1583 1583 1583 1585 1585 1584 1583 1584
1569 1572 1574 1576 1576 1576 1577 1578 1579 1579 1580 1581 1581 1581 1581 1582 1582 1582 1582 1582 1582 1582
1564 1568 1572 1573 1574 1574 1576 1576 1577 1577 1578 1578 1578 1578 1577 1578 1579 1579 1580 1580 1580 1580
1560 1563 1567 1570 1572 1574 1575 1575 1575 1576 1576 1576 1577 1576 1575 1576 1576 1576 1576 1576 1576 1576
1556 1559 1563 1566 1568 1571 1572 1574 1574 1575 1575 1575 1575 1575 1576 1576 1575 1575 1574 1574 1574 1574
1551 1553 1556 1560 1564 1568 1570 1571 1573 1573 1574 1574 1574 1573 1573 1574 1574 1574 1573 1573 1573 1573
1545 1548 1552 1555 1559 1564 1568 1570 1570 1571 1571 1571 1571 1571 1571 1571 1571 1572 1572 1571 1571 1570
1542 1544 1547 1551 1555 1559 1562 1564 1566 1568 1568 1568 1568 1569 1569 1568 1567 1568 1568 1568 1567 1566
1539 1540 1542 1545 1550 1554 1557 1561 1563 1564 1565 1565 1565 1563 1564 1564 1564 1564 1563 1563 1563 1562
1536 1537 1539 1541 1545 1549 1553 1557 1559 1560 1560 1561 1560 1559 1559 1559 1559 1558 1559 1559 1559 1558
1531 1534 1535 1539 1541 1545 1549 1552 1553 1554 1554 1554 1554 1554 1554 1554 1554 1554 1554 1555 1555 1554
1524 1525 1530 1531 1536 1541 1543 1544 1548 1549 1549 1549 1549 1549 1549 1549 1549 1549 1549 1549 1549 1549
1515 1517 1525 1527 1532 1534 1537 1539 1543 1544 1543 1543 1544 1544 1544 1544 1545 1544 1545 1545 1545 1545
1514 1512 1514 1525 1528 1531 1532 1534 1537 1539 1539 1540 1540 1540 1540 1540 1541 1541 1541 1541 1541 1541
Wind_Speed
22 20 17 19 16 15 13 14 12 14 15 10 8 6 5 4 6 8 7 6 6 6
26 22 21 23 17 13 14 14 14 12 17 11 8 8 7 8 10 9 10 8 9 8
28 26 24 20 20 18 16 13 10 12 12 14 10 8 8 9 12 12 12 12 11 11
28 29 25 24 23 20 18 15 16 13 12 13 14 11 10 9 10 11 13 13 14 13
27 26 28 27 27 23 19 16 14 11 13 13 10 11 12 11 10 10 9 10 13 13
26 25 28 27 27 24 19 17 16 16 16 13 11 10 12 12 11 9 9 9 9 10
25 23 24 27 24 22 21 19 17 16 15 15 14 14 12 12 12 11 9 8 8 8
19 20 20 21 24 22 20 17 17 17 15 14 14 13 11 11 13 13 13 13 11 12
21 20 22 24 25 20 22 21 19 18 16 16 16 16 15 15 15 17 16 15 15 16
27 24 23 23 24 23 22 22 22 21 20 19 19 21 20 20 19 17 18 18 17 18
34 31 28 26 25 26 24 25 24 23 23 23 24 22 20 20 19 20 21 21 21 20
29 31 31 30 26 23 24 24 23 25 24 24 22 20 16 15 15 18 19 19 19 17
21 23 30 25 25 25 24 23 23 25 19 16 15 14 13 12 13 14 14 11 12 14
5 9 10 15 17 19 19 16 13 13 11 10 9 8 9 9 8 6 6 7 6 8
Wind_Direction
202 205 207 203 192 200 195 203 198 208 225 224 204 219 231 217 218 230 250 275 253 250
206 203 197 184 194 200 213 213 221 227 220 226 226 215 229 243 245 252 249 265 266 262
211 206 204 202 209 217 217 217 218 227 239 239 243 243 254 241 252 253 254 262 270 260
212 211 210 213 218 219 218 226 220 234 251 225 244 253 253 247 248 260 260 261 266 263
211 212 216 220 223 223 225 226 221 237 229 234 236 246 241 239 247 257 260 265 256 251
201 208 212 218 219 223 226 231 233 233 233 229 236 245 244 245 248 254 260 263 263 266
198 200 205 211 215 214 217 226 228 234 241 252 252 252 251 252 253 254 255 265 263 288
201 203 207 206 200 206 218 226 237 243 251 257 256 254 259 256 255 249 253 256 263 279
204 202 203 201 206 211 217 229 242 249 254 252 253 259 260 263 265 259 262 261 262 279
209 206 203 203 210 220 224 229 239 241 245 249 254 263 260 261 261 257 255 256 260 277
213 217 214 211 212 220 222 227 237 241 247 256 263 267 265 263 262 257 254 253 267 278
212 210 218 214 217 219 222 231 243 254 255 259 258 263 256 259 262 263 261 265 268 270
203 214 220 214 225 225 231 243 245 253 247 256 262 258 251 251 261 265 261 262 270 268
195 226 206 219 223 223 224 230 237 242 238 243 241 238 243 241 225 239 245 246 254 261